Weather History for Fairbanks Ft. Wainwright, AK

Change the Weather History Date:

Saturday, February 16, 2013

  Actual Average Record
Temperature  
Mean Temperature -10 °F -  
Max Temperature 0 °F 10 °F 30 °F (2006)
Min Temperature -20 °F -2 °F -38 °F (2011)
Degree Days  
Heating Degree Days 75    
Moisture  
Dew Point -16 °F    
Average Humidity 81    
Maximum Humidity 91    
Minimum Humidity 74    
Precipitation  
Precipitation 0.00 in - - ()
Sea Level Pressure  
Sea Level Pressure 30.10 in    
Wind  
Wind Speed 0 mph (West)    
Max Wind Speed 4 mph    
Max Gust Speed -    
Visibility 10 miles    
Events      
Averages and records for this station are not official NWS values.
T = Trace of Precipitation, MM = Missing Value Source: NWS Daily Summary

Daily Weather History Graph

Daily Weather History Graph

Search for Another Location

Airport:

Trip Planner

Search our weather history database for the weather conditions in past years. The results will help you decide how hot, cold, wet, or windy it might be!

Date:

Astronomy

Feb. 16, 2013 Rise Set
Actual Time 8:44 AM AKST 5:26 PM AKST
Civil Twilight 7:51 AM AKST 6:18 PM AKST
Nautical Twilight 6:54 AM AKST 7:15 PM AKST
Astronomical Twilight 5:58 AM AKST 8:12 PM AKST
Moon 9:14 AM AKST (2/16) 2:17 AM AKST (2/16)
Length of Visible Light 10h 26m
Length of Day
8h 42m
Waxing Crescent, 41% of the Moon is Illuminated
Feb 16
Waxing Crescent
Feb 17
First Quarter
Feb 25
Full
Mar 4
Last Quarter
Mar 11
New

Hourly Weather History & Observations

Time (AKST) Temp. Windchill Dew Point Humidity Pressure Visibility Wind Dir Wind Speed Gust Speed Precip Events Conditions
12:56 AM -9.0 °F - -13.0 °F 83% 30.12 in 10.0 mi Calm Calm - N/A   Overcast
1:56 AM -9.9 °F - -14.1 °F 82% 30.13 in 10.0 mi Calm Calm - N/A   Scattered Clouds
2:56 AM -7.1 °F - -13.0 °F 75% 30.13 in 10.0 mi Calm Calm - N/A   Overcast
3:56 AM -9.9 °F - -14.1 °F 82% 30.14 in 10.0 mi Calm Calm - N/A   Overcast
4:56 AM -11.9 °F - -17.0 °F 78% 30.15 in 10.0 mi Calm Calm - N/A   Mostly Cloudy
5:56 AM -13.0 °F - -17.0 °F 82% 30.15 in 10.0 mi Calm Calm - N/A   Overcast
6:56 AM -13.0 °F - -17.0 °F 82% 30.16 in 10.0 mi Calm Calm - N/A   Mostly Cloudy
7:56 AM -20.9 °F - -23.1 °F 90% 30.18 in 10.0 mi Calm Calm - N/A   Clear
8:56 AM -20.9 °F - -26.0 °F 77% 30.17 in 10.0 mi Calm Calm - N/A   Clear
9:56 AM -14.1 °F - -18.0 °F 82% 30.17 in 10.0 mi Calm Calm - N/A   Partly Cloudy
10:56 AM -13.0 °F - -18.9 °F 75% 30.17 in 10.0 mi Calm Calm - N/A   Overcast
11:56 AM -7.1 °F - -11.9 °F 79% 30.17 in 10.0 mi Calm Calm - N/A   Overcast
12:56 PM -6.0 °F - -9.9 °F 83% 30.16 in 10.0 mi Calm Calm - N/A   Overcast
1:56 PM -4.0 °F -12.4 °F -8.0 °F 83% 30.14 in 10.0 mi WSW 3.5 mph - N/A   Overcast
2:56 PM -0.9 °F -8.9 °F -7.1 °F 75% 30.12 in 10.0 mi West 3.5 mph - N/A   Overcast
3:56 PM -2.9 °F -11.2 °F -8.0 °F 79% 30.10 in 10.0 mi West 3.5 mph - N/A   Clear
4:56 PM -9.0 °F - -11.0 °F 91% 30.07 in 10.0 mi Calm Calm - N/A   Clear
5:56 PM -11.9 °F - -16.1 °F 82% 30.06 in 10.0 mi Calm Calm - N/A   Clear
6:56 PM -17.0 °F - -18.9 °F 91% 30.04 in 10.0 mi Calm Calm - N/A   Clear
7:56 PM -15.0 °F - -20.0 °F 78% 30.04 in 10.0 mi Calm Calm - N/A   Clear
8:56 PM -17.0 °F - -23.1 °F 74% 30.01 in 10.0 mi Calm Calm - N/A   Clear
9:56 PM -14.1 °F - -20.0 °F 75% 30.00 in 10.0 mi Calm Calm - N/A   Clear
10:56 PM -11.0 °F - -15.0 °F 83% 29.96 in 10.0 mi Calm Calm - N/A   Clear
11:56 PM -13.0 °F - -17.0 °F 82% 29.95 in 10.0 mi Calm Calm - N/A   Clear